[[[{"header":{"parameterUnit":"kt","parameterCategory":2,"dx":1,"dy":1,"la1":30.253999710083008,"la2":30.299108505249023,"lo1":-89.0895004272461,"lo2":-89.04439544677734,"nx":28,"ny":28,"refTime":"2022-09-26T21:00:00:Z","depth":"0","parameterNumber":2,"parameterNumberName":"U-component_of_CURRENTS"},"data":[0.297,0.3005,0.3051,0.3062,0.3109,0.3078,0.3097,0.3154,0.332,0.3588,0.387,0.4149,0.4636,0.5166,0.5216,0.5125,0.4704,0.4771,0.4526,0.4782,0.4775,0.4768,0.4725,0.483,0.483,0.412,0.4115,0.4111,0.3011,0.3078,0.3151,0.3224,0.3245,0.3325,0.3421,0.3424,0.3544,0.3841,0.4041,0.4465,0.4735,0.4972,0.5189,0.5097,0.4912,0.5005,0.4819,0.4635,0.4976,0.4946,0.5101,0.5101,0.5101,0.5101,0.5101,0.5101,0.3116,0.3142,0.3245,0.3306,0.338,0.3437,0.3453,0.361,0.3749,0.3952,0.4192,0.4421,0.4779,0.5045,0.5062,0.5126,0.496,0.5016,0.4945,0.4845,0.4638,0.4968,0.5163,0.5163,0.5163,0.5162,0.5162,0,0.3186,0.3237,0.3305,0.3393,0.3454,0.3523,0.3633,0.3698,0.3895,0.4037,0.4259,0.4415,0.4721,0.4873,0.5028,0.5044,0.4799,0.4964,0.4885,0.4733,0.4611,0.4422,0.4693,0.4883,0.4881,0.4879,0.4878,0.4878,0.3264,0.3296,0.3424,0.3464,0.3512,0.3598,0.3655,0.38,0.3886,0.4141,0.42,0.4414,0.4563,0.4772,0.4835,0.4915,0.4727,0.4917,0.4793,0.4714,0.4641,0.4526,0.4352,0.4857,0.4859,0.4861,0.4863,0,0.3304,0.3386,0.3449,0.3568,0.3603,0.3646,0.3777,0.3839,0.3969,0.4093,0.4132,0.4299,0.4455,0.4513,0.4603,0.4589,0.4597,0.4675,0.4674,0.4685,0.466,0.4586,0.4647,0.4464,0.4784,0.4786,0.4789,0,0.3377,0.3417,0.3531,0.3561,0.3625,0.3709,0.3787,0.3856,0.3973,0.406,0.4128,0.4218,0.4262,0.4359,0.4349,0.446,0.4463,0.4433,0.4447,0.4438,0.4441,0.4373,0.4294,0.4385,0.4384,0.4383,0.4382,0,0.3389,0.3488,0.3546,0.3577,0.3685,0.3718,0.3778,0.3869,0.3923,0.4028,0.4086,0.4154,0.4208,0.4239,0.4274,0.4214,0.4388,0.4307,0.4381,0.4385,0.4395,0.4396,0.4502,0.438,0.438,0.438,0.4379,0,0.3431,0.349,0.3559,0.3651,0.3673,0.371,0.3801,0.3849,0.3934,0.3964,0.4019,0.4028,0.4095,0.4037,0.4137,0.4091,0.4106,0.4116,0.4122,0.4147,0.4106,0.4248,0.4408,0.4338,0.4165,0.4163,0.4161,0,0.3428,0.3503,0.3546,0.361,0.3652,0.3695,0.3741,0.3788,0.3826,0.388,0.3891,0.3925,0.3882,0.39,0.3939,0.3958,0.4012,0.393,0.4009,0.4011,0.4067,0.4212,0.4227,0.4369,0.4136,0.4138,0.414,0,0.3414,0.3509,0.3513,0.355,0.3613,0.3637,0.3685,0.3736,0.3776,0.3784,0.3837,0.3835,0.3839,0.3831,0.3816,0.3855,0.3968,0.3825,0.3825,0.3893,0.4104,0.4167,0.4191,0.3963,0.3966,0.3968,0.412,0,0.3461,0.3491,0.3508,0.3561,0.3589,0.3617,0.3648,0.367,0.3676,0.3688,0.3722,0.3701,0.371,0.3713,0.3682,0.3757,0.3751,0.3719,0.3683,0.3759,0.3813,0.383,0.3602,0.36,0.3598,0.3597,0,0,0.3435,0.3469,0.3488,0.3522,0.3546,0.3561,0.3592,0.36,0.3603,0.3616,0.3596,0.36,0.3574,0.3611,0.3631,0.361,0.3637,0.3597,0.371,0.3723,0.3734,0.379,0.3808,0.3594,0.3593,0.3592,0.3592,0,0.3449,0.3461,0.3481,0.3505,0.3537,0.3547,0.356,0.3571,0.3573,0.358,0.3556,0.3567,0.3535,0.3539,0.3532,0.3584,0.3572,0.3579,0.3639,0.3693,0.3708,0.3722,0.378,0.3798,0.3588,0.3588,0.3588,0,0.3447,0.3466,0.347,0.3498,0.3507,0.3535,0.3516,0.3532,0.355,0.3496,0.3504,0.3487,0.3456,0.3468,0.3469,0.3447,0.3521,0.3467,0.3475,0.3468,0.3521,0.3538,0.3553,0.336,0.3359,0.3359,0,0,0.3457,0.3472,0.3493,0.35,0.3514,0.3514,0.3518,0.3518,0.351,0.3504,0.3481,0.3457,0.3448,0.3442,0.342,0.3423,0.3428,0.3443,0.3453,0.3463,0.3461,0.3515,0.3532,0.3358,0.3358,0.3358,0,0,0.3455,0.3478,0.3482,0.3491,0.3509,0.3505,0.351,0.3506,0.3492,0.3487,0.3448,0.3439,0.3446,0.3411,0.3398,0.342,0.337,0.3372,0.3454,0.3467,0.3477,0.3483,0.3356,0,0,0,0,0,0.3474,0.3479,0.3483,0.3486,0.3488,0.3506,0.3504,0.3497,0.3486,0.3496,0.347,0.3441,0.3404,0.339,0.338,0.3417,0.3339,0.3343,0.3346,0.3451,0.3465,0.3476,0,0,0,0,0,0,0.3475,0.3479,0.3482,0.348,0.3481,0.3504,0.3481,0.3478,0.3486,0.3485,0.3446,0.3439,0.3408,0.3392,0.3384,0.3421,0.3359,0.3341,0.3343,0.3346,0.3456,0.3467,0.3477,0,0,0,0,0,0.3476,0.3479,0.3489,0.3479,0.348,0.3476,0.3481,0.3479,0.348,0.3444,0.3437,0.348,0.3409,0.34,0.3387,0.3426,0.3364,0.3361,0.3342,0.3345,0.3347,0.3461,0,0,0,0,0,0,0.3477,0.3463,0.3488,0.3487,0.3483,0.3474,0.3474,0.3479,0.3437,0.3433,0.3474,0.3473,0.3409,0.3402,0.3395,0.3432,0.3369,0.3366,0.3364,0.3344,0.3346,0.3347,0,0,0,0,0,0,0.3462,0.3462,0.3487,0.3492,0.3492,0.3473,0.3473,0.3442,0.3435,0.3467,0.3467,0.3474,0.3414,0.3403,0.3398,0.335,0.3372,0.3369,0.3367,0.3366,0.3345,0.3347,0,0,0,0,0,0,0.3462,0.3462,0.3492,0.3492,0.3491,0.348,0.3443,0.3439,0.3462,0.3467,0.3463,0.3463,0.3416,0.341,0.34,0.3354,0.3351,0.3372,0.337,0.3369,0.3368,0,0,0,0,0,0,0,0.3461,0.3464,0.3498,0.3491,0.3491,0.3484,0.3483,0.3482,0.3462,0.3463,0.3463,0.3463,0.3388,0.3385,0.3382,0.3358,0,0,0.3372,0.3371,0,0,0,0,0,0,0,0,0.3463,0.3464,0.3498,0.3499,0.3499,0.3484,0.3483,0.3483,0.3462,0.3463,0.3463,0.3463,0.3388,0.3385,0.3382,0,0,0,0,0,0,0,0,0,0,0,0,0,0,0,0.3499,0.3499,0,0.3484,0.3483,0.3483,0.3462,0.3463,0.3463,0.3463,0.3387,0.3385,0.3383,0,0,0,0,0,0,0,0,0,0,0,0,0,0,0,0,0,0,0,0,0,0,0,0,0,0,0,0,0,0,0,0,0,0,0,0,0,0,0,0,0,0,0,0,0,0,0,0,0,0,0,0,0,0,0,0,0,0,0,0,0,0,0,0,0,0,0,0,0]}],[{"header":{"parameterUnit":"kt","parameterCategory":2,"dx":1,"dy":1,"la1":30.253999710083008,"la2":30.299108505249023,"lo1":-89.0895004272461,"lo2":-89.04439544677734,"nx":28,"ny":28,"refTime":"2022-09-26T21:00:00:Z","depth":"0","parameterNumber":3,"parameterNumberName":"V-component_of_CURRENTS"},"data":[-0.007,0.0014,0.0023,0.0133,0.0174,0.0247,0.0297,0.0343,0.0328,0.0165,-0.0069,-0.0288,-0.1114,-0.2705,-0.4013,-0.4284,-0.4815,-0.4874,-0.5095,-0.4477,-0.4399,-0.4324,-0.442,-0.5083,-0.5085,-0.606,-0.6069,-0.6077,-0.0142,-0.0117,-0.0039,0.0035,0.0107,0.0125,0.0239,0.0272,0.0352,0.0331,0.0309,-0.0198,-0.0932,-0.1675,-0.2732,-0.3327,-0.3566,-0.3673,-0.3908,-0.4025,-0.3051,-0.3104,-0.3498,-0.3498,-0.3498,-0.3497,-0.3497,-0.3496,-0.0271,-0.0222,-0.0172,-0.0099,-0.0028,0.0064,0.0118,0.0192,0.0276,0.0295,0.0258,0.0119,-0.0487,-0.1194,-0.1581,-0.2438,-0.2364,-0.2695,-0.2852,-0.293,-0.3182,-0.2085,-0.2269,-0.2267,-0.2266,-0.2265,-0.2264,0,-0.0378,-0.0371,-0.0319,-0.0241,-0.0177,-0.0104,-0.0035,0.0028,0.0039,0.0083,0.0113,0.0042,-0.035,-0.0766,-0.1264,-0.1527,-0.2112,-0.1848,-0.2228,-0.2654,-0.2824,-0.305,-0.1884,-0.201,-0.2007,-0.2005,-0.2003,-0.2002,-0.0506,-0.0467,-0.0418,-0.0373,-0.0354,-0.0292,-0.0238,-0.0238,-0.0181,-0.0166,-0.0119,-0.0256,-0.0335,-0.0717,-0.1094,-0.1442,-0.1738,-0.1766,-0.1813,-0.2195,-0.2407,-0.2525,-0.2692,-0.1969,-0.1973,-0.1977,-0.198,0,-0.0572,-0.0579,-0.0511,-0.0486,-0.0471,-0.0417,-0.0372,-0.0322,-0.033,-0.027,-0.0272,-0.0368,-0.0523,-0.0755,-0.0984,-0.1177,-0.1624,-0.147,-0.1563,-0.1618,-0.214,-0.2299,-0.2691,-0.2913,-0.1682,-0.1684,-0.1687,0,-0.0673,-0.0627,-0.0629,-0.0595,-0.0518,-0.0549,-0.0475,-0.0482,-0.0476,-0.0426,-0.0539,-0.0517,-0.073,-0.0848,-0.1025,-0.124,-0.1195,-0.1419,-0.1465,-0.1549,-0.1564,-0.1922,-0.2093,-0.1356,-0.1355,-0.1354,-0.1354,0,-0.076,-0.0731,-0.0676,-0.0671,-0.066,-0.0632,-0.063,-0.064,-0.0613,-0.0642,-0.0625,-0.0718,-0.0747,-0.0888,-0.1065,-0.1078,-0.1218,-0.1256,-0.1429,-0.1437,-0.1561,-0.1579,-0.1977,-0.1353,-0.1352,-0.1352,-0.1352,0,-0.0848,-0.0827,-0.0768,-0.0748,-0.074,-0.0721,-0.0698,-0.0694,-0.0722,-0.0736,-0.0775,-0.0837,-0.0889,-0.096,-0.109,-0.1067,-0.1175,-0.125,-0.1256,-0.1341,-0.1402,-0.1584,-0.1625,-0.2004,-0.1356,-0.1356,-0.1355,0,-0.0926,-0.0878,-0.0899,-0.0852,-0.0829,-0.0874,-0.0853,-0.0869,-0.0895,-0.0897,-0.096,-0.0965,-0.1041,-0.1049,-0.1095,-0.1174,-0.1219,-0.1185,-0.1315,-0.1319,-0.1385,-0.1392,-0.1502,-0.1608,-0.1348,-0.1349,-0.135,0,-0.099,-0.0995,-0.0989,-0.0974,-0.0998,-0.0993,-0.0984,-0.0989,-0.0969,-0.1023,-0.1004,-0.1048,-0.1091,-0.1101,-0.1146,-0.1177,-0.1214,-0.1227,-0.123,-0.1267,-0.1298,-0.1374,-0.1387,-0.1241,-0.1241,-0.1241,-0.1344,0,-0.1071,-0.1057,-0.1043,-0.1039,-0.1048,-0.1038,-0.1072,-0.108,-0.1107,-0.1132,-0.1137,-0.1184,-0.1199,-0.1217,-0.1244,-0.1242,-0.1273,-0.1294,-0.131,-0.129,-0.1341,-0.1345,-0.1311,-0.1312,-0.1313,-0.1313,0,0,-0.1134,-0.1108,-0.1142,-0.1128,-0.1128,-0.1187,-0.1164,-0.1185,-0.1217,-0.1216,-0.1243,-0.1272,-0.1297,-0.1286,-0.1284,-0.1303,-0.1335,-0.129,-0.13,-0.1298,-0.1297,-0.1344,-0.1347,-0.1315,-0.1315,-0.1315,-0.1316,0,-0.1159,-0.117,-0.1145,-0.1161,-0.1185,-0.1208,-0.1208,-0.1244,-0.1254,-0.1259,-0.129,-0.1306,-0.132,-0.1331,-0.1338,-0.1315,-0.1352,-0.1323,-0.1274,-0.1306,-0.1303,-0.1301,-0.1346,-0.1348,-0.1317,-0.1317,-0.1317,0,-0.1207,-0.1215,-0.1208,-0.1224,-0.1244,-0.1242,-0.1286,-0.1294,-0.1288,-0.1335,-0.1327,-0.1355,-0.1374,-0.1369,-0.1367,-0.1375,-0.1373,-0.1364,-0.1361,-0.1342,-0.1376,-0.1373,-0.137,-0.1409,-0.1409,-0.1409,0,0,-0.1226,-0.1213,-0.1246,-0.1232,-0.124,-0.128,-0.1291,-0.1311,-0.1331,-0.1338,-0.1356,-0.137,-0.1378,-0.1378,-0.1388,-0.1381,-0.1407,-0.1373,-0.1369,-0.1365,-0.1345,-0.1378,-0.1374,-0.1409,-0.1409,-0.1409,0,0,-0.1238,-0.1255,-0.1271,-0.1254,-0.128,-0.1318,-0.1315,-0.1341,-0.1356,-0.1354,-0.138,-0.1383,-0.1378,-0.1391,-0.1394,-0.1387,-0.1408,-0.1407,-0.137,-0.1365,-0.1361,-0.1333,-0.1413,0,0,0,0,0,-0.1276,-0.1252,-0.1267,-0.1269,-0.1293,-0.1312,-0.1319,-0.1346,-0.136,-0.1358,-0.1374,-0.1385,-0.1398,-0.1401,-0.1403,-0.1387,-0.1414,-0.1413,-0.1412,-0.1363,-0.1358,-0.1353,0,0,0,0,0,0,-0.1277,-0.1278,-0.1268,-0.1302,-0.1308,-0.1313,-0.1338,-0.1346,-0.136,-0.1362,-0.1383,-0.1386,-0.14,-0.1401,-0.1403,-0.1387,-0.1412,-0.1414,-0.1413,-0.1412,-0.1362,-0.1357,-0.1353,0,0,0,0,0,-0.1278,-0.1279,-0.1303,-0.1303,-0.1309,-0.1344,-0.1338,-0.1344,-0.1356,-0.1378,-0.1382,-0.1374,-0.14,-0.1402,-0.1402,-0.1385,-0.1411,-0.1412,-0.1413,-0.1413,-0.1412,-0.1359,0,0,0,0,0,0,-0.1279,-0.1293,-0.1306,-0.131,-0.1302,-0.1344,-0.1349,-0.1343,-0.1371,-0.1376,-0.137,-0.1372,-0.14,-0.1401,-0.1403,-0.1383,-0.141,-0.1411,-0.1411,-0.1413,-0.1412,-0.1412,0,0,0,0,0,0,-0.1293,-0.1295,-0.1308,-0.1304,-0.1308,-0.1345,-0.1348,-0.1354,-0.137,-0.1361,-0.1364,-0.137,-0.1387,-0.1401,-0.1402,-0.1412,-0.1409,-0.141,-0.141,-0.1411,-0.1412,-0.1412,0,0,0,0,0,0,-0.1295,-0.1297,-0.1304,-0.1307,-0.131,-0.1358,-0.135,-0.1367,-0.1387,-0.1359,-0.1387,-0.1387,-0.1385,-0.1388,-0.1402,-0.1411,-0.1411,-0.1409,-0.141,-0.141,-0.141,0,0,0,0,0,0,0,-0.1297,-0.1265,-0.1281,-0.1308,-0.1312,-0.1347,-0.1348,-0.135,-0.1387,-0.1387,-0.1387,-0.1387,-0.1406,-0.1406,-0.1407,-0.141,0,0,-0.1409,-0.141,0,0,0,0,0,0,0,0,-0.1266,-0.1266,-0.1281,-0.1282,-0.1283,-0.1347,-0.1348,-0.1349,-0.1387,-0.1387,-0.1387,-0.1387,-0.1406,-0.1406,-0.1407,0,0,0,0,0,0,0,0,0,0,0,0,0,0,0,-0.1281,-0.1282,0,-0.1347,-0.1348,-0.1349,-0.1387,-0.1387,-0.1387,-0.1387,-0.1406,-0.1407,-0.1407,0,0,0,0,0,0,0,0,0,0,0,0,0,0,0,0,0,0,0,0,0,0,0,0,0,0,0,0,0,0,0,0,0,0,0,0,0,0,0,0,0,0,0,0,0,0,0,0,0,0,0,0,0,0,0,0,0,0,0,0,0,0,0,0,0,0,0,0,0]}]],[[{"header":{"parameterUnit":"kt","parameterCategory":2,"dx":1,"dy":1,"la1":30.253999710083008,"la2":30.299108505249023,"lo1":-89.0895004272461,"lo2":-89.04439544677734,"nx":28,"ny":28,"refTime":"2022-09-26T21:00:00:Z","depth":"2","parameterNumber":2,"parameterNumberName":"U-component_of_CURRENTS"},"data":[0.2991,0.3023,0.3069,0.3073,0.3123,0.3084,0.3103,0.3094,0.3147,0.3128,0.3095,0.3268,0.347,0.2951,0.2925,0.273,0.2835,0.2618,0.3765,0.3419,0.3456,0.3555,0.3376,0,0,0,0,0,0.3033,0.3103,0.3176,0.3249,0.3261,0.3349,0.3445,0.3421,0.3482,0.3624,0.3742,0.3517,0.3478,0.3561,0.335,0.3425,0.3226,0.3314,0.2978,0.3029,0.3073,0.2912,0.2585,0.258,0.2576,0.2572,0,0,0.314,0.3167,0.3269,0.3331,0.3404,0.3462,0.3477,0.3599,0.3722,0.385,0.4114,0.417,0.4249,0.4202,0.4115,0.4026,0.4323,0.4109,0.411,0.412,0.4029,0.3976,0.399,0.3995,0.4,0.4004,0.4008,0,0.3211,0.3262,0.3329,0.3418,0.3478,0.3547,0.3657,0.3722,0.392,0.4048,0.4269,0.4409,0.461,0.4504,0.4613,0.4561,0.4427,0.4381,0.4874,0.3835,0.3767,0.3751,0.3758,0.376,0.3765,0.3768,0.377,0.3772,0.3288,0.332,0.3448,0.3489,0.3536,0.3623,0.368,0.3825,0.391,0.4165,0.4223,0.4436,0.4569,0.4776,0.4729,0.4778,0.4824,0.4466,0.4282,0.466,0.4651,0.4631,0.4612,0.3819,0.3813,0.3808,0.3804,0,0.3328,0.341,0.3474,0.3593,0.3627,0.3671,0.3802,0.3864,0.3994,0.4117,0.4156,0.4323,0.4477,0.4535,0.4624,0.4609,0.4672,0.4694,0.4246,0.4207,0.4602,0.4587,0.4793,0.4797,0.48,0.4802,0.4805,0,0.3402,0.3442,0.3555,0.3585,0.365,0.3734,0.3812,0.3881,0.3997,0.4085,0.4153,0.4243,0.4286,0.4382,0.4373,0.4482,0.4486,0.4455,0.4468,0.4069,0.404,0.4262,0.4243,0.4409,0.4407,0.4406,0.4405,0,0.3413,0.3513,0.3571,0.3601,0.371,0.3743,0.3802,0.3894,0.3948,0.4052,0.4111,0.4179,0.4233,0.4263,0.4298,0.4238,0.4412,0.433,0.4403,0.4406,0.4035,0.4004,0.4404,0.4404,0.4403,0.4403,0.4402,0,0.3455,0.3515,0.3584,0.3676,0.3698,0.3735,0.3826,0.3873,0.3959,0.3989,0.4044,0.4053,0.4121,0.4063,0.4162,0.4116,0.4131,0.4141,0.4147,0.417,0.4129,0.3863,0.3925,0.4192,0.4189,0.4187,0.4186,0,0.3453,0.3528,0.3571,0.3635,0.3676,0.372,0.3766,0.3813,0.3851,0.3905,0.3917,0.3951,0.3908,0.3926,0.3965,0.3984,0.4038,0.3957,0.4034,0.4037,0.4091,0.4234,0.3802,0.3905,0.416,0.4163,0.4165,0,0.3439,0.3534,0.3538,0.3575,0.3638,0.3662,0.371,0.3761,0.3801,0.381,0.3862,0.3861,0.3865,0.3857,0.3842,0.3882,0.3994,0.3852,0.3852,0.3919,0.4128,0.419,0.4213,0.3989,0.3992,0.3994,0.4144,0,0.3486,0.3516,0.3533,0.3586,0.3614,0.3642,0.3673,0.3695,0.3701,0.3713,0.3748,0.3727,0.3737,0.374,0.3709,0.3785,0.3778,0.3746,0.371,0.3786,0.3839,0.3856,0.363,0.3628,0.3626,0.3624,0,0,0.3459,0.3494,0.3513,0.3547,0.357,0.3585,0.3617,0.3625,0.3628,0.3641,0.3621,0.3626,0.36,0.3638,0.3658,0.3638,0.3664,0.3625,0.3737,0.375,0.3761,0.3817,0.3835,0.3621,0.3621,0.362,0.3619,0,0.3473,0.3486,0.3506,0.353,0.3562,0.3572,0.3585,0.3596,0.3598,0.3605,0.3582,0.3593,0.3562,0.3566,0.3559,0.3612,0.36,0.3607,0.3667,0.372,0.3735,0.3749,0.3807,0.3824,0.3615,0.3615,0.3616,0,0.3472,0.349,0.3495,0.3523,0.3531,0.3559,0.354,0.3557,0.3575,0.3522,0.3529,0.3513,0.3482,0.3496,0.3496,0.3474,0.3548,0.3494,0.3503,0.3496,0.3548,0.3565,0.358,0.3388,0.3388,0.3387,0,0,0.3481,0.3496,0.3517,0.3524,0.3538,0.3539,0.3542,0.3543,0.3535,0.353,0.3507,0.3483,0.3475,0.3468,0.3447,0.3451,0.3456,0.3471,0.3481,0.349,0.3489,0.3543,0.3559,0.3386,0.3386,0.3386,0,0,0.3479,0.3502,0.3506,0.3515,0.3533,0.3529,0.3535,0.3531,0.3518,0.3513,0.3473,0.3465,0.3472,0.3438,0.3425,0.3447,0.3398,0.3399,0.3481,0.3493,0.3504,0.351,0.3383,0,0,0,0,0,0.3497,0.3503,0.3507,0.351,0.3512,0.353,0.3529,0.3522,0.3511,0.3521,0.3496,0.3466,0.343,0.3417,0.3407,0.3444,0.3368,0.3371,0.3374,0.3479,0.3492,0.3504,0,0,0,0,0,0,0.3499,0.3503,0.3506,0.3504,0.3505,0.3529,0.3506,0.3503,0.3511,0.351,0.3472,0.3464,0.3434,0.3419,0.3411,0.3447,0.3385,0.3369,0.3372,0.3374,0.3483,0.3494,0.3504,0,0,0,0,0,0.35,0.3503,0.3513,0.3503,0.3504,0.35,0.3505,0.3503,0.3505,0.3469,0.3462,0.3504,0.3435,0.3426,0.3414,0.3453,0.3391,0.3388,0.3371,0.3373,0.3375,0.3489,0,0,0,0,0,0,0.3501,0.3487,0.3512,0.3512,0.3507,0.3499,0.3498,0.3504,0.3462,0.3458,0.3498,0.3498,0.3435,0.3428,0.3421,0.3458,0.3395,0.3392,0.339,0.3372,0.3374,0.3375,0,0,0,0,0,0,0.3486,0.3487,0.3512,0.3517,0.3516,0.3498,0.3498,0.3467,0.346,0.3492,0.3492,0.3498,0.344,0.3429,0.3424,0.3377,0.3398,0.3396,0.3394,0.3392,0.3374,0.3375,0,0,0,0,0,0,0.3486,0.3486,0.3516,0.3516,0.3516,0.3505,0.3468,0.3465,0.3487,0.3492,0.3488,0.3488,0.3441,0.3436,0.3426,0.3381,0.3378,0.3398,0.3396,0.3395,0.3394,0,0,0,0,0,0,0,0.3486,0.3488,0.3523,0.3515,0.3515,0.3509,0.3508,0.3507,0.3487,0.3487,0.3488,0.3488,0.3415,0.3412,0.3408,0.3385,0,0,0.3399,0.3397,0,0,0,0,0,0,0,0,0.3487,0.3488,0.3523,0.3523,0.3523,0.3509,0.3508,0.3507,0.3487,0.3487,0.3488,0.3488,0.3414,0.3411,0.3409,0,0,0,0,0,0,0,0,0,0,0,0,0,0,0,0.3523,0.3523,0,0.3509,0.3508,0.3507,0.3487,0.3487,0.3488,0.3488,0.3413,0.3411,0.3409,0,0,0,0,0,0,0,0,0,0,0,0,0,0,0,0,0,0,0,0,0,0,0,0,0,0,0,0,0,0,0,0,0,0,0,0,0,0,0,0,0,0,0,0,0,0,0,0,0,0,0,0,0,0,0,0,0,0,0,0,0,0,0,0,0,0,0,0,0]}],[{"header":{"parameterUnit":"kt","parameterCategory":2,"dx":1,"dy":1,"la1":30.253999710083008,"la2":30.299108505249023,"lo1":-89.0895004272461,"lo2":-89.04439544677734,"nx":28,"ny":28,"refTime":"2022-09-26T21:00:00:Z","depth":"2","parameterNumber":3,"parameterNumberName":"V-component_of_CURRENTS"},"data":[0.0047,0.0148,0.0159,0.0302,0.0309,0.0491,0.0545,0.0854,0.1061,0.1341,0.1389,0.1428,0.0765,0.0444,-0.0087,-0.0476,-0.0642,-0.0555,-0.0835,-0.0539,-0.0548,-0.0949,-0.0846,0,0,0,0,0,-0.0034,-0.0044,0.0034,0.0108,0.0232,0.0198,0.0313,0.0497,0.0736,0.0908,0.1018,0.0818,0.0547,0.0061,-0.0475,-0.0909,-0.0857,-0.114,-0.0937,-0.0949,-0.0962,-0.0893,-0.0832,-0.0833,-0.0834,-0.0836,0,0,-0.0196,-0.0148,-0.0097,-0.0024,0.0047,0.014,0.0193,0.0368,0.0487,0.0658,0.0511,0.0553,0.022,-0.0198,-0.0613,-0.1058,-0.1102,-0.1284,-0.1281,-0.1283,-0.1235,-0.1216,-0.1261,-0.1264,-0.1267,-0.1269,-0.1271,0,-0.0301,-0.0294,-0.0242,-0.0164,-0.0101,-0.0026,0.0043,0.0105,0.0118,0.0186,0.0216,0.0165,-0.012,-0.0329,-0.0785,-0.099,-0.1254,-0.1298,-0.1506,-0.1047,-0.1018,-0.1048,-0.1053,-0.1036,-0.1037,-0.1039,-0.104,-0.1041,-0.0427,-0.0387,-0.0338,-0.0294,-0.0274,-0.0213,-0.0159,-0.0158,-0.01,-0.0085,-0.0038,-0.0175,-0.0232,-0.0614,-0.0873,-0.1187,-0.1338,-0.1319,-0.1316,-0.1501,-0.1537,-0.1528,-0.152,-0.106,-0.1058,-0.1056,-0.1054,0,-0.0491,-0.0497,-0.0429,-0.0404,-0.0388,-0.0335,-0.029,-0.024,-0.0248,-0.0188,-0.0191,-0.0285,-0.044,-0.0672,-0.09,-0.1093,-0.1294,-0.1385,-0.1128,-0.1144,-0.1505,-0.1501,-0.1592,-0.1595,-0.1598,-0.1601,-0.1603,0,-0.059,-0.0544,-0.0545,-0.0511,-0.0435,-0.0464,-0.0391,-0.0397,-0.0392,-0.0342,-0.0454,-0.0432,-0.0645,-0.0762,-0.0939,-0.1154,-0.1109,-0.1332,-0.1378,-0.1156,-0.1147,-0.1275,-0.1275,-0.1269,-0.1268,-0.1267,-0.1267,0,-0.0675,-0.0645,-0.0591,-0.0585,-0.0573,-0.0546,-0.0543,-0.0553,-0.0526,-0.0555,-0.0538,-0.0631,-0.0661,-0.0801,-0.0979,-0.0991,-0.1131,-0.1169,-0.1342,-0.135,-0.1175,-0.1168,-0.1266,-0.1266,-0.1265,-0.1265,-0.1265,0,-0.0762,-0.074,-0.0681,-0.066,-0.0651,-0.0632,-0.0609,-0.0605,-0.0633,-0.0647,-0.0686,-0.0748,-0.08,-0.0871,-0.1002,-0.0978,-0.1087,-0.1161,-0.1167,-0.1253,-0.1312,-0.1176,-0.1144,-0.1268,-0.1268,-0.1267,-0.1267,0,-0.0839,-0.079,-0.081,-0.0763,-0.074,-0.0784,-0.0762,-0.0778,-0.0804,-0.0806,-0.0869,-0.0874,-0.095,-0.0959,-0.1005,-0.1084,-0.113,-0.1094,-0.1225,-0.1229,-0.1295,-0.1303,-0.1063,-0.114,-0.126,-0.126,-0.1261,0,-0.0901,-0.0905,-0.0899,-0.0884,-0.0907,-0.0902,-0.0892,-0.0897,-0.0878,-0.0932,-0.0913,-0.0957,-0.1,-0.101,-0.1055,-0.1086,-0.1124,-0.1136,-0.1139,-0.1177,-0.1209,-0.1285,-0.1298,-0.115,-0.115,-0.115,-0.1255,0,-0.098,-0.0966,-0.0952,-0.0948,-0.0956,-0.0946,-0.0979,-0.0988,-0.1015,-0.1041,-0.1046,-0.1092,-0.1107,-0.1125,-0.1151,-0.115,-0.1181,-0.1201,-0.1217,-0.1197,-0.1249,-0.1253,-0.1217,-0.1218,-0.1219,-0.1219,0,0,-0.1042,-0.1016,-0.105,-0.1035,-0.1036,-0.1094,-0.1071,-0.1092,-0.1124,-0.1123,-0.1151,-0.1179,-0.1204,-0.1192,-0.1191,-0.1209,-0.1241,-0.1197,-0.1207,-0.1205,-0.1204,-0.1251,-0.1255,-0.1221,-0.1221,-0.1221,-0.1222,0,-0.1066,-0.1078,-0.1052,-0.1068,-0.1092,-0.1115,-0.1115,-0.1151,-0.1161,-0.1166,-0.1197,-0.1213,-0.1226,-0.1237,-0.1243,-0.1221,-0.1258,-0.1229,-0.1181,-0.1213,-0.121,-0.1208,-0.1254,-0.1256,-0.1223,-0.1223,-0.1223,0,-0.1113,-0.1121,-0.1114,-0.1129,-0.1149,-0.1147,-0.1191,-0.1199,-0.1194,-0.124,-0.1233,-0.1261,-0.1279,-0.1273,-0.1272,-0.128,-0.1278,-0.1269,-0.1265,-0.1247,-0.1281,-0.1278,-0.1275,-0.1312,-0.1312,-0.1312,0,0,-0.1132,-0.1118,-0.1151,-0.1137,-0.1146,-0.1185,-0.1196,-0.1216,-0.1236,-0.1243,-0.1261,-0.1275,-0.1282,-0.1282,-0.1292,-0.1285,-0.1311,-0.1278,-0.1273,-0.127,-0.125,-0.1282,-0.1279,-0.1313,-0.1313,-0.1313,0,0,-0.1143,-0.116,-0.1176,-0.1159,-0.1184,-0.1221,-0.1219,-0.1245,-0.126,-0.1259,-0.1284,-0.1287,-0.1283,-0.1296,-0.1299,-0.1291,-0.1312,-0.1311,-0.1275,-0.127,-0.1266,-0.1239,-0.1317,0,0,0,0,0,-0.118,-0.1157,-0.1171,-0.1173,-0.1197,-0.1215,-0.1222,-0.1249,-0.1264,-0.1262,-0.1279,-0.129,-0.1302,-0.1305,-0.1307,-0.1292,-0.1317,-0.1317,-0.1316,-0.1268,-0.1263,-0.1258,0,0,0,0,0,0,-0.1181,-0.1182,-0.1173,-0.1205,-0.1211,-0.1216,-0.1241,-0.1249,-0.1264,-0.1267,-0.1288,-0.129,-0.1304,-0.1305,-0.1307,-0.1291,-0.1316,-0.1317,-0.1316,-0.1316,-0.1266,-0.1262,-0.1258,0,0,0,0,0,-0.1182,-0.1183,-0.1206,-0.1207,-0.1212,-0.1248,-0.1241,-0.1248,-0.126,-0.1282,-0.1286,-0.1279,-0.1304,-0.1306,-0.1306,-0.129,-0.1315,-0.1316,-0.1317,-0.1316,-0.1316,-0.1264,0,0,0,0,0,0,-0.1183,-0.1196,-0.1209,-0.1213,-0.1206,-0.1248,-0.1253,-0.1247,-0.1275,-0.128,-0.1274,-0.1276,-0.1303,-0.1305,-0.1307,-0.1288,-0.1314,-0.1315,-0.1315,-0.1316,-0.1316,-0.1315,0,0,0,0,0,0,-0.1196,-0.1199,-0.1211,-0.1208,-0.1212,-0.1248,-0.1252,-0.1257,-0.1274,-0.1265,-0.1268,-0.1274,-0.1291,-0.1305,-0.1306,-0.1314,-0.1313,-0.1314,-0.1314,-0.1315,-0.1316,-0.1315,0,0,0,0,0,0,-0.1199,-0.1201,-0.1208,-0.1211,-0.1214,-0.1262,-0.1253,-0.127,-0.129,-0.1262,-0.1291,-0.1291,-0.1289,-0.1292,-0.1305,-0.1313,-0.1314,-0.1314,-0.1314,-0.1314,-0.1314,0,0,0,0,0,0,0,-0.1201,-0.117,-0.1184,-0.1212,-0.1216,-0.125,-0.1251,-0.1252,-0.129,-0.129,-0.129,-0.1291,-0.131,-0.1311,-0.1311,-0.1312,0,0,-0.1313,-0.1314,0,0,0,0,0,0,0,0,-0.117,-0.117,-0.1185,-0.1185,-0.1186,-0.125,-0.1251,-0.1252,-0.129,-0.129,-0.129,-0.1291,-0.131,-0.1311,-0.1311,0,0,0,0,0,0,0,0,0,0,0,0,0,0,0,-0.1185,-0.1185,0,-0.125,-0.1251,-0.1252,-0.129,-0.129,-0.129,-0.1291,-0.1311,-0.1311,-0.1311,0,0,0,0,0,0,0,0,0,0,0,0,0,0,0,0,0,0,0,0,0,0,0,0,0,0,0,0,0,0,0,0,0,0,0,0,0,0,0,0,0,0,0,0,0,0,0,0,0,0,0,0,0,0,0,0,0,0,0,0,0,0,0,0,0,0,0,0,0]}]],[[{"header":{"parameterUnit":"kt","parameterCategory":2,"dx":1,"dy":1,"la1":30.253999710083008,"la2":30.299108505249023,"lo1":-89.0895004272461,"lo2":-89.04439544677734,"nx":28,"ny":28,"refTime":"2022-09-26T21:00:00:Z","depth":"4","parameterNumber":2,"parameterNumberName":"U-component_of_CURRENTS"},"data":[0.2033,0.2126,0.2164,0.217,0.2201,0.2303,0.2393,0.2516,0.2476,0.266,0.2681,0.2815,0.2883,0.3029,0.2959,0.2987,0.2923,0.3257,0.325,0.326,0.3279,0.3295,0.3179,0,0,0,0,0,0.2086,0.2121,0.2215,0.2307,0.2426,0.25,0.2647,0.2735,0.2911,0.284,0.2933,0.2992,0.3018,0.3112,0.3018,0.3277,0.3291,0.3157,0.3153,0.3272,0.3292,0.3172,0,0,0,0,0,0,0.2164,0.2206,0.2349,0.2445,0.2576,0.262,0.2712,0.277,0.2847,0.3056,0.3071,0.3234,0.3385,0.3338,0.3361,0.3324,0.3254,0.3117,0.3144,0.3165,0.3043,0.2948,0.2818,0,0,0,0,0,0.2225,0.2329,0.2419,0.2561,0.2668,0.2768,0.2897,0.292,0.3108,0.3273,0.3296,0.3329,0.3417,0.3441,0.346,0.3437,0.3564,0.3505,0.3514,0.3404,0.336,0.334,0.3343,0.337,0.3373,0.3374,0.3375,0,0.2312,0.2365,0.2573,0.264,0.2726,0.2869,0.2949,0.3119,0.3181,0.3404,0.3423,0.3582,0.3655,0.3575,0.3669,0.3647,0.3599,0.356,0.3443,0.3393,0.3368,0.3366,0.3362,0.3392,0.3391,0.3389,0.3388,0,0.2358,0.2471,0.2575,0.2747,0.2807,0.2887,0.3067,0.3138,0.3292,0.3402,0.3455,0.3602,0.3682,0.3743,0.38,0.369,0.3665,0.3615,0.3782,0.3765,0.3398,0.3388,0.3419,0.3413,0.3408,0.3404,0.34,0,0.2444,0.2516,0.2681,0.2724,0.2829,0.2934,0.3058,0.3147,0.3281,0.3363,0.3482,0.3547,0.3639,0.3703,0.3696,0.3644,0.3768,0.3524,0.35,0.3636,0.3626,0.3603,0.3587,0.3726,0.3725,0.3724,0.3724,0,0.2471,0.2601,0.2685,0.2726,0.286,0.293,0.3013,0.3137,0.3208,0.3357,0.3423,0.3522,0.3593,0.3622,0.3648,0.3619,0.372,0.3671,0.3505,0.3492,0.3593,0.3579,0.3723,0.3723,0.3723,0.3723,0.3722,0,0.2522,0.2591,0.2686,0.2802,0.2832,0.2897,0.3024,0.3097,0.3219,0.3278,0.337,0.3413,0.3502,0.3467,0.3555,0.3528,0.3534,0.3535,0.3537,0.3328,0.3261,0.341,0.3539,0.3537,0.3536,0.3534,0.3533,0,0.2515,0.2607,0.2659,0.2752,0.2799,0.2871,0.294,0.3021,0.3095,0.3184,0.3237,0.3318,0.3306,0.3355,0.3391,0.3414,0.3453,0.3398,0.3429,0.343,0.3249,0.3324,0.3429,0.3511,0.3514,0.3516,0.3517,0,0.2489,0.2604,0.2621,0.2669,0.2755,0.2789,0.2874,0.295,0.3019,0.309,0.3172,0.3235,0.3266,0.328,0.329,0.3323,0.3417,0.3304,0.3303,0.333,0.3511,0.3321,0.3316,0.3417,0.3419,0.3421,0.3502,0,0.2502,0.2566,0.2596,0.2667,0.2709,0.2762,0.281,0.2874,0.293,0.2965,0.3064,0.3086,0.3142,0.3161,0.3151,0.3239,0.3227,0.3199,0.3152,0.3233,0.3256,0.3269,0.3094,0.3092,0.3091,0.3089,0,0,0.2461,0.2516,0.2554,0.2597,0.2635,0.2679,0.2724,0.2764,0.2828,0.2868,0.2879,0.2972,0.2985,0.3051,0.3086,0.3084,0.3101,0.3082,0.3189,0.32,0.3211,0.3237,0.3251,0.3086,0.3086,0.3085,0.3085,0,0.2442,0.2495,0.2537,0.2571,0.2633,0.2648,0.2679,0.2724,0.2767,0.2832,0.2843,0.2901,0.2943,0.2962,0.2972,0.3057,0.3044,0.3074,0.3135,0.3174,0.3187,0.3199,0.3228,0.3242,0.3081,0.3081,0.3081,0,0.2411,0.2444,0.2473,0.2526,0.2558,0.2595,0.2598,0.2658,0.27,0.269,0.2775,0.2797,0.2804,0.2864,0.2896,0.287,0.2984,0.2943,0.2951,0.2948,0.2984,0.3,0.3014,0.2833,0.2832,0.2832,0,0,0.2397,0.2444,0.2473,0.2521,0.2542,0.2575,0.2603,0.2631,0.2665,0.2693,0.272,0.2752,0.2781,0.2809,0.2827,0.2875,0.287,0.2915,0.2927,0.2937,0.2939,0.2978,0.2993,0.2829,0.2829,0.2829,0,0,0.2381,0.2426,0.2449,0.2498,0.2533,0.2546,0.2588,0.261,0.2661,0.2687,0.2687,0.2696,0.2771,0.2759,0.273,0.2825,0.2774,0.2779,0.2842,0.2856,0.2868,0.2867,0.27,0,0,0,0,0,0.238,0.2415,0.2436,0.2448,0.2503,0.2532,0.2539,0.258,0.2607,0.264,0.2674,0.2664,0.2746,0.272,0.2724,0.278,0.2801,0.2806,0.2811,0.2903,0.2918,0.2931,0,0,0,0,0,0,0.2385,0.2398,0.2435,0.2448,0.2461,0.253,0.2533,0.2544,0.2605,0.2614,0.2656,0.2663,0.2654,0.2718,0.2721,0.2776,0.2699,0.2803,0.2807,0.2811,0.2908,0.292,0.2931,0,0,0,0,0,0.2389,0.2399,0.2484,0.2447,0.2459,0.2513,0.2534,0.2544,0.2603,0.2605,0.2616,0.2642,0.2652,0.2659,0.272,0.2775,0.2697,0.2698,0.2806,0.2809,0.2812,0.2914,0,0,0,0,0,0,0.2391,0.2397,0.2487,0.2491,0.2463,0.2512,0.2523,0.2543,0.2593,0.2603,0.2585,0.259,0.265,0.2656,0.2661,0.2777,0.2695,0.2696,0.2697,0.2808,0.2811,0.2813,0,0,0,0,0,0,0.2392,0.24,0.2489,0.2506,0.2512,0.2511,0.2521,0.2529,0.2593,0.2569,0.2575,0.2587,0.265,0.2654,0.2658,0.2668,0.2693,0.2694,0.2695,0.2696,0.281,0.2813,0,0,0,0,0,0,0.2395,0.2403,0.2505,0.251,0.2516,0.2563,0.2519,0.2577,0.2601,0.2566,0.2605,0.2608,0.2647,0.2652,0.2655,0.2663,0.2666,0.2693,0.2694,0.2695,0.2695,0,0,0,0,0,0,0,0.2399,0.2346,0.2466,0.2513,0.2518,0.2531,0.2532,0.2533,0.2601,0.2603,0.2605,0.2607,0.2686,0.2687,0.2689,0.2659,0,0,0.2693,0.2694,0,0,0,0,0,0,0,0,0.2344,0.2346,0.2466,0.2467,0.2469,0.2531,0.2532,0.2533,0.2601,0.2603,0.2605,0.2606,0.2686,0.2687,0.2688,0,0,0,0,0,0,0,0,0,0,0,0,0,0,0,0.2466,0.2467,0,0.2532,0.2532,0.2533,0.2602,0.2603,0.2604,0.2605,0.2686,0.2687,0.2688,0,0,0,0,0,0,0,0,0,0,0,0,0,0,0,0,0,0,0,0,0,0,0,0,0,0,0,0,0,0,0,0,0,0,0,0,0,0,0,0,0,0,0,0,0,0,0,0,0,0,0,0,0,0,0,0,0,0,0,0,0,0,0,0,0,0,0,0,0]}],[{"header":{"parameterUnit":"kt","parameterCategory":2,"dx":1,"dy":1,"la1":30.253999710083008,"la2":30.299108505249023,"lo1":-89.0895004272461,"lo2":-89.04439544677734,"nx":28,"ny":28,"refTime":"2022-09-26T21:00:00:Z","depth":"4","parameterNumber":3,"parameterNumberName":"V-component_of_CURRENTS"},"data":[0.0857,0.0925,0.0949,0.1046,0.1102,0.1186,0.1229,0.1227,0.1217,0.1187,0.1025,0.0929,0.0617,0.0786,0.03,0.023,0.0116,-0.0221,-0.0226,-0.0389,-0.0387,-0.0385,-0.031,0,0,0,0,0,0.0838,0.0881,0.0942,0.1007,0.108,0.1124,0.1181,0.1183,0.1182,0.1175,0.1128,0.0972,0.065,0.051,0.0295,0.0196,-0.0106,-0.0066,-0.0199,-0.0387,-0.0385,-0.0313,0,0,0,0,0,0,0.081,0.0845,0.0897,0.0952,0.1021,0.1087,0.1097,0.1121,0.1133,0.1096,0.1087,0.0887,0.0759,0.0437,0.0227,0.0008,-0.0052,-0.0125,-0.0137,-0.0138,-0.0043,0.0027,0.0016,0,0,0,0,0,0.0773,0.0795,0.0828,0.0896,0.0938,0.099,0.1028,0.1051,0.104,0.1018,0.0981,0.0812,0.0642,0.038,0.0142,-0.0068,-0.0256,-0.0319,-0.032,-0.0319,-0.0292,-0.0307,-0.0298,-0.0377,-0.0377,-0.0377,-0.0377,0,0.0728,0.0753,0.0796,0.0827,0.0833,0.0865,0.0895,0.0872,0.0896,0.0867,0.0885,0.0745,0.0644,0.0351,0.0122,-0.0175,-0.0216,-0.0313,-0.0311,-0.0288,-0.0305,-0.0296,-0.0288,-0.0375,-0.0375,-0.0375,-0.0376,0,0.0704,0.0704,0.0743,0.0749,0.0759,0.0784,0.0796,0.0813,0.0777,0.0791,0.0775,0.0654,0.0505,0.0303,0.0084,-0.004,-0.0207,-0.0265,-0.0192,-0.0212,-0.029,-0.0282,-0.0372,-0.0373,-0.0374,-0.0374,-0.0374,0,0.0651,0.0677,0.0674,0.0691,0.0729,0.0697,0.0724,0.0698,0.0667,0.068,0.0566,0.055,0.0348,0.0233,0.0082,-0.0082,-0.0089,-0.0203,-0.023,-0.0175,-0.0169,-0.0193,-0.0188,-0.023,-0.0229,-0.0228,-0.0228,0,0.061,0.0616,0.0644,0.0643,0.0635,0.064,0.0632,0.0592,0.0591,0.0524,0.0516,0.0397,0.035,0.0217,0.0064,0.0061,-0.0099,-0.0117,-0.0201,-0.0202,-0.0186,-0.0182,-0.0227,-0.0226,-0.0226,-0.0226,-0.0226,0,0.0556,0.0563,0.0589,0.0591,0.0591,0.0591,0.0579,0.0566,0.0507,0.0473,0.0408,0.0346,0.0262,0.0217,0.0066,0.01,0.0007,-0.0062,-0.0068,-0.007,-0.0089,-0.0111,-0.0143,-0.0142,-0.014,-0.0139,-0.0138,0,0.0527,0.0542,0.0517,0.0534,0.0541,0.0501,0.0495,0.0462,0.0421,0.0389,0.0311,0.0273,0.0214,0.019,0.0131,0.005,-0.0006,0.0045,-0.0079,-0.0083,-0.0069,-0.0097,-0.001,-0.0123,-0.0125,-0.0126,-0.0127,0,0.0498,0.0478,0.048,0.0486,0.0452,0.0445,0.0429,0.04,0.0396,0.033,0.031,0.0235,0.0194,0.0169,0.0121,0.0075,0.0014,0.0043,0.004,0.0005,-0.0088,-0.008,-0.0089,-0.0005,-0.0006,-0.0007,-0.0116,0,0.0463,0.0461,0.0461,0.0442,0.0427,0.0422,0.0382,0.0363,0.0331,0.0298,0.0251,0.0193,0.015,0.0124,0.0097,0.0056,0.0039,0.003,0.0025,0.0016,-0.0032,-0.0041,0.0054,0.0053,0.0053,0.0053,0,0,0.0446,0.0439,0.0403,0.0399,0.0391,0.0346,0.0348,0.0321,0.0275,0.026,0.0241,0.0164,0.0129,0.0094,0.0083,0.0065,0.0034,0.0068,0.0023,0.002,0.0017,-0.0029,-0.0036,0.0052,0.0052,0.0052,0.0052,0,0.0428,0.0407,0.0406,0.0388,0.0357,0.0335,0.033,0.0289,0.027,0.0241,0.0208,0.017,0.0127,0.0096,0.0077,0.0064,0.003,0.0051,0.0066,0.0022,0.0019,0.0017,-0.0029,-0.0035,0.0051,0.0051,0.0051,0,0.0408,0.0386,0.038,0.0347,0.0327,0.0317,0.0285,0.0267,0.0257,0.0216,0.0195,0.0159,0.0122,0.0095,0.0081,0.0079,0.0026,0.0049,0.005,0.0057,0.0012,0.0009,0.0006,0.0039,0.0039,0.0039,0,0,0.0397,0.0386,0.0348,0.0341,0.033,0.0294,0.028,0.026,0.0231,0.0219,0.0189,0.0157,0.0128,0.0113,0.0086,0.0063,0.0037,0.005,0.005,0.0051,0.0058,0.0013,0.001,0.004,0.004,0.004,0,0,0.039,0.0352,0.0339,0.0328,0.0302,0.0263,0.0257,0.0236,0.0211,0.0209,0.0175,0.0166,0.0138,0.012,0.013,0.0082,0.0078,0.0075,0.0099,0.0099,0.0099,0.0115,0.0111,0,0,0,0,0,0.0356,0.0356,0.0346,0.0339,0.0297,0.0269,0.0262,0.0235,0.0225,0.0221,0.0193,0.0179,0.0117,0.0125,0.0117,0.0107,0.0045,0.0044,0.0043,0.0067,0.0068,0.0068,0,0,0,0,0,0,0.0353,0.0346,0.0345,0.0307,0.0297,0.0269,0.0251,0.0244,0.0225,0.0222,0.0184,0.0178,0.0157,0.0127,0.0121,0.0112,0.0113,0.0045,0.0044,0.0043,0.0068,0.0068,0.0068,0,0,0,0,0,0.0351,0.0345,0.0286,0.0307,0.0298,0.026,0.0251,0.0245,0.023,0.0194,0.0187,0.0211,0.0157,0.015,0.0123,0.0115,0.0117,0.0115,0.0045,0.0044,0.0043,0.0068,0,0,0,0,0,0,0.0349,0.0338,0.0283,0.0279,0.0307,0.0261,0.0254,0.0246,0.0202,0.0195,0.0219,0.0218,0.0158,0.0152,0.0146,0.0118,0.0121,0.0119,0.0117,0.0044,0.0043,0.0043,0,0,0,0,0,0,0.0341,0.0335,0.0281,0.0284,0.028,0.0262,0.0256,0.0232,0.0202,0.023,0.0228,0.0219,0.0165,0.0153,0.0149,0.0112,0.0124,0.0122,0.012,0.0119,0.0044,0.0043,0,0,0,0,0,0,0.0338,0.0333,0.0285,0.0282,0.0278,0.023,0.024,0.0198,0.0205,0.0233,0.0204,0.0204,0.0167,0.0162,0.0151,0.0116,0.0113,0.0124,0.0122,0.0121,0.012,0,0,0,0,0,0,0,0.0335,0.0379,0.0307,0.028,0.0277,0.0241,0.024,0.0239,0.0205,0.0205,0.0204,0.0204,0.0137,0.0134,0.0132,0.0119,0,0,0.0124,0.0123,0,0,0,0,0,0,0,0,0.038,0.0379,0.0307,0.0306,0.0305,0.0241,0.024,0.0239,0.0205,0.0205,0.0205,0.0204,0.0136,0.0134,0.0132,0,0,0,0,0,0,0,0,0,0,0,0,0,0,0,0.0307,0.0306,0,0.0241,0.024,0.0239,0.0205,0.0205,0.0205,0.0204,0.0136,0.0134,0.0132,0,0,0,0,0,0,0,0,0,0,0,0,0,0,0,0,0,0,0,0,0,0,0,0,0,0,0,0,0,0,0,0,0,0,0,0,0,0,0,0,0,0,0,0,0,0,0,0,0,0,0,0,0,0,0,0,0,0,0,0,0,0,0,0,0,0,0,0,0]}]]]